TimeMDT,TemperatureF,Dew PointF,Humidity,Sea Level PressureIn,VisibilityMPH,Wind Direction,Wind SpeedMPH,Gust SpeedMPH,PrecipitationIn,Events,Conditions,WindDirDegrees,DateUTC
12:51 AM,73.9,48.0,40,29.83,10.0,South,5.8,-,N/A,,Clear,180,2013-07-14 06:51:00
1:51 AM,72.0,48.9,44,29.83,10.0,SW,4.6,-,N/A,,Clear,220,2013-07-14 07:51:00
2:51 AM,72.0,48.9,44,29.83,10.0,SW,5.8,-,N/A,,Clear,230,2013-07-14 08:51:00
3:51 AM,71.1,50.0,47,29.83,10.0,Calm,Calm,-,N/A,,Clear,0,2013-07-14 09:51:00
4:51 AM,69.1,50.0,51,29.83,10.0,Calm,Calm,-,N/A,,Clear,0,2013-07-14 10:51:00
5:51 AM,69.1,50.0,51,29.83,10.0,Calm,Calm,-,N/A,,Clear,0,2013-07-14 11:51:00
6:51 AM,71.1,51.1,49,29.83,10.0,Calm,Calm,-,N/A,,Clear,0,2013-07-14 12:51:00
7:51 AM,75.9,50.0,40,29.84,10.0,ESE,5.8,-,N/A,,Clear,120,2013-07-14 13:51:00
8:51 AM,82.0,48.9,31,29.83,10.0,South,3.5,-,N/A,,Clear,190,2013-07-14 14:51:00
9:51 AM,89.1,48.0,24,29.81,10.0,SSW,6.9,-,N/A,,Clear,200,2013-07-14 15:51:00
10:51 AM,93.0,42.1,17,29.80,10.0,SSW,9.2,16.1,N/A,,Clear,200,2013-07-14 16:51:00
11:51 AM,93.9,43.0,17,29.79,10.0,Calm,Calm,-,N/A,,Clear,0,2013-07-14 17:51:00
12:51 PM,96.1,43.0,16,29.76,10.0,Variable,3.5,-,N/A,,Clear,0,2013-07-14 18:51:00
1:51 PM,98.1,43.0,15,29.74,10.0,South,3.5,-,0.00,,Clear,190,2013-07-14 19:51:00
2:51 PM,99.0,43.0,15,29.71,10.0,SE,6.9,-,N/A,,Clear,130,2013-07-14 20:51:00
3:51 PM,98.1,42.1,15,29.69,10.0,NE,5.8,-,N/A,,Clear,50,2013-07-14 21:51:00
4:51 PM,99.0,42.1,14,29.66,10.0,Variable,4.6,-,N/A,,Clear,0,2013-07-14 22:51:00
5:51 PM,99.0,41.0,14,29.65,10.0,South,8.1,-,N/A,,Clear,170,2013-07-14 23:51:00
6:51 PM,96.1,39.9,14,29.65,10.0,South,4.6,-,N/A,,Clear,180,2013-07-15 00:51:00
7:10 PM,91.4,50.0,24,29.91,1.8,North,19.6,27.6,N/A,,Haze,360,2013-07-15 01:10:00
7:23 PM,82.4,60.8,48,29.91,2.0,North,28.8,41.4,0.00,Rain,Light Rain,360,2013-07-15 01:23:00
7:33 PM,82.4,59.0,45,29.91,6.0,North,27.6,38.0,0.00,,Haze,10,2013-07-15 01:33:00
7:51 PM,84.9,57.0,38,29.71,6.0,NNE,27.6,34.5,0.00,,Haze,20,2013-07-15 01:51:00
8:51 PM,80.1,62.1,54,29.79,10.0,North,26.5,32.2,N/A,,Clear,10,2013-07-15 02:51:00
9:51 PM,75.0,61.0,62,29.81,8.0,NE,19.6,31.1,0.00,Rain,Light Rain,40,2013-07-15 03:51:00
10:51 PM,73.0,61.0,66,29.83,10.0,ENE,11.5,-,0.00,Rain,Light Rain,60,2013-07-15 04:51:00
11:51 PM,72.0,60.1,66,29.86,10.0,East,11.5,-,0.00,Rain,Light Rain,80,2013-07-15 05:51:00